星链-11255 (STARLINK-11255)

导读

STARLINK-11255是美国太空探索技术公司(SpaceX)星链卫星互联网星座的一员,于2024年8月28日发射升空。星链计划旨在构建全球卫星互联网覆盖网络,STARLINK-11255入轨后,将和其他星链卫星协同工作,为全球各地用户提供低延迟、高速率的宽带互联网接入服务。

Basic Information
目录编号:
60730
目录名称:
STARLINK-11255
国际标识:
2024-152L
轨道中心:
EARTH
卫星名称:
星链-11255 (STARLINK-11255)
卫星全名:
星链-11255 (STARLINK-11255)
卫星状态:
在轨 (已飞行744 天)
发射日期:
2024-08-28 UTC
国别 :
美国 (US)
星等 :
--
This satellite is enrolled in the Space Conjunction Data Service (SCDS) and the current flight risk assessment level is: No High Risk
Orbit Information
数据来源 国际轨道数据
星历时间: 2026-09-11T15:39:01+0800
7小时前
查看轨道信息
半长轴: 6737.911km
偏心率: 0.0000937
轨道倾角: 53.158°
近地点辐角 68.644°
升交点赤经 280.920°
平近点角 291.468°
近地点: 359.142km
远地点: 360.406km
周期: 91.738分钟
每日圈数: 15.696935
Detailed Information
卫星平台:
Starlink v2.0 mini
运营商:
太空探索技术公司
运营商所在国:
美国
制造商(研发单位):
太空探索技术公司
制造商所在国:
美国
使用方式:
暂无
Satellite Introduction
星链(Starlink)计划是由太空探索技术公司(SpaceX)提出的一个巨型低轨卫星互联网星座项目,计划在2019年至2024年间在太空搭建由约1.2万颗卫星组成的“星链”网络,其中1584颗将部署在地球上空550千米处的近地轨道,并从2020年开始工作。该卫星仍在工作。
2D Orbit Map
3D Orbit Map
Orbit Altitude Analysis Chart
Orbit Inclination Analysis Chart
Orbit Comprehensive Analysis Chart
View Comprehensive Chart
Conjunction Data List
Event ID Objects TCA Miss Dist (km) Collision Risk Probability Collision Risk Index (CRI) Action
CDM_260911-123006-073006-202021
2026-09-11T
12:30:41+0000
1.641 km
极远距离
3.212228E-6 低风险 0.45
CDM_260911-144806-073006-202021
2026-09-11T
14:48:12+0000
2.167 km
极远距离
1.554621E-6 低风险 0.39
Miss Distance Evolution Trend with All Objects
Collision Probability Evolution Trend with All Objects